Regional Weather Roundup
Issued by NWS Newport/Morehead, NC

Current Version | Previous Version | Graphics & Text | Print | Product List | Glossary Off
Versions: 1 2 3 4 5 6 7 8 9 10 11 12 13 14 15 16 17 18 19 20 21 22 23 24 25 26 27 28 29 30 31 32 33 34 35 36 37 38 39 40 41 42 43 44 45 46 47 48 49 50

000
ASUS42 KMHX 090212
RWRMHX
WEATHER ROUNDUP FOR EASTERN NORTH CAROLINA
NATIONAL WEATHER SERVICE NEWPORT/MOREHEAD CITY NC
900 PM EST THU DEC 08 2016

NOTE: "FAIR" INDICATES FEW OR NO CLOUDS BELOW 12,000 FEET
WITH NO SIGNIFICANT WEATHER AND/OR OBSTRUCTIONS TO VISIBILITY

NCZ015>017-031-032-045>047-102-103-090300-
NORTH COAST

CITY           SKY/WX    TMP DP  RH WIND       PRES   REMARKS
EDENTON        MOCLDY    46  27  48 NW3       30.16S
ELIZABETH CITY CLOUDY    41  29  62 W10       30.14R
KITTY HAWK     CLOUDY    47  34  59 NW10G18   30.10S
MANTEO         CLOUDY    47  28  47 NW14G23   30.13R

$$

NCZ045>047-081-094-103-104-090300-
CENTRAL COAST

CITY           SKY/WX    TMP DP  RH WIND       PRES   REMARKS
FRISCO         MOCLDY    49  28  44 NW16G29   30.14R

$$

NCZ095-097-098-100-101-090300-
SOUTHERN COAST

CITY           SKY/WX    TMP DP  RH WIND       PRES   REMARKS
BEAUFORT       PTCLDY    48  31  51 NW13      30.18R
CEDAR ISLAND   NOT AVBL
JACKSONVILLE   PTCLDY    44  32  62 W6        30.20R
PINEY ISLAND   MOCLDY   N/A N/A N/A NW14G21   30.16R
WILMINGTON     PTCLDY    46  28  49 NW9       30.21R


$$

NCZ011>013-027>030-043-044-078>080-089-090>093-098-090300-
COASTAL PLAIN

CITY           SKY/WX    TMP DP  RH WIND       PRES   REMARKS
AHOSKIE        PTCLDY    34  28  76 CALM      30.17S
CLINTON        CLOUDY    46  29  52 CALM      30.21R
ELIZABETHTOWN  MOCLDY    45  29  53 CALM      30.21R
GOLDSBORO      CLOUDY    45  25  45 CALM      30.18R
GREENVILLE     CLOUDY    45  23  42 CALM      30.19R
HAVELOCK       CLOUDY    47  26  44 NW9       30.19R
KENANSVILLE    CLOUDY    46  25  42 NW6       30.20R
KINSTON        CLOUDY    45  25  45 CALM      30.20R
NEW BERN       CLOUDY    47  24  40 NW9       30.19R
RICHLANDS      MOCLDY    43  34  70 CALM      30.20R
ROCKY MOUNT    CLEAR     38  29  70 W3        30.19R
WASHINGTON     CLOUDY    44  26  48 NW5       30.17S
WHITEVILLE     CLOUDY    45  35  69 CALM      30.21R

$$

AMZ130-135-150-152-154-156-158-170-250-252-270-ANZ085-086-088-633-658-670-090300-
MARINE OBSERVATIONS

STATION/POSITION TIME  TEMP    WIND        PRES    WAVE   SWELL
                       AIR SEA DIR/SP/G            HT/PER HT/PER
                 (UTC) (F)     (DEG/KT/KT) (MB)    (FT/S) (FT/S)
CHESAPEAKE LIGHT NOT AVBL
64 E VA BEACH    0150   50 58  320/ 19/ 23 1018.2    4/ 5   2/ 9
DUCK             0142   47 54  310/ 17/ 23 1019.0
2 E DUCK         NOT AVBL
OREGON INLET     0142   49 54  300/ 15/ 24 1019.6
13E OREGON INLT  NOT AVBL
HATTERAS CG      0142   51 60  310/ 21/ 26 1020.0
DIAMOND BUOY     0150   53 77  320/ 21/ 27 1019.9    5/ 5   2/ 8
CAPE LOOKOUT     0200   49     320/ 13/ 16 1021.3
BEAUFORT LAB     0142   47 55  320/  6/ 10 1020.6
30 SE NEW RVR IN NOT AVBL
30 SE NEW RVR IN NOT AVBL
27 SE WRIGHTSVLE 0108   54 66  340/ 17/ 23 1021.3
5 SE WRIGHTSVLE  0108   49 61  330/ 17/ 29 1021.2
225 S CAPE HAT   0150   73 74  310/ 16/ 17 1017.3    4/ 5   2/ 8
41 SE CHARLESTON 0150   60 73  340/ 19/ 25 1021.4    4/ 5

$$




USA.gov is the U.S. government's official web portal to all federal, state and local government web resources and services.